Location: Peebles
(55.6412°N, 3.1714°W)
Time: 23:11:45
(UTC+01:00)

CENTAUR R/B - Pass Details

Date: 19 January 2022
Orbit: 716 x 1471 km, 63.4° (Epoch: 08 May)

Event Time Altitude Azimuth Distance (km) Brightness Sun altitude
Rises 18:58:30 0° 243° (WSW) 3,517 6.6 -21.5°
Reaches altitude 10° 19:00:50 10° 245° (WSW) 2,671 5.8 -21.8°
Maximum altitude 19:07:08 70° 330° (NNW) 1,152 2.9 -22.7°
Enters shadow 19:10:55 31° 46° (NE) 1,915 3.6 -23.2°
